Location: Kaarina
(60.4167°N, 22.4167°E)
Time: 07:11:00
(UTC+03:00)

SPOT 5 - Pass Details

Date: 24 August 2019
Orbit: 623 x 815 km, 98.3° (Epoch: 21 September)

Event Time Altitude Azimuth Distance (km) Brightness Sun altitude
Exits shadow 23:46:30 12° 206° (SSW) 1,849 4.6 -15.5°
Maximum altitude 23:49:55 31° 266° (W) 1,119 4.1 -15.7°
Drops below altitude 10° 23:53:52 10° 329° (NNW) 2,047 6.6 -15.9°
Sets 23:56:20 0° 339° (NNW) 2,984 7.9 -16.1°
